Regional Weather Roundup
Issued by NWS Green Bay, WI

Home | Current Version | Previous Version | Text Only | Print | Product List | Glossary On
Versions: 1 2 3 4 5 6 7 8 9 10 11 12 13 14 15 16 17 18 19 20 21 22 23 24 25 26 27 28 29 30 31 32 33 34 35 36 37 38 39 40 41 42 43 44 45 46 47 48 49 50
000
ASUS43 KGRB 252201
RWRGRB

NORTH-CENTRAL AND NORTHEAST WISCONSIN REGIONAL WEATHER ROUNDUP
NATIONAL WEATHER SERVICE GREEN BAY WI
500 PM CDT SUN JUN 25 2017

WIZ005-009-010>012-018-019-252300-
NORTH CENTRAL WISCONSIN

CITY           SKY/WX    TMP DP  RH WIND       PRES   REMARKS
IRONWOOD       LGT RAIN  52  51  97 W10       30.05R
MANITOWISH WTR NOT AVBL
ARBOR VITAE    NOT AVBL
EAGLE RIVER    NOT AVBL
LAND O LAKES   TSTM      54  52  94 W3        30.04R
RHINELANDER    LGT RAIN  54  53  97 W10G17    30.04S
PHILLIPS       NOT AVBL
ANTIGO         NOT AVBL
TOMAHAWK       NOT AVBL
MERRILL        CLOUDY    58  53  85 N7        30.05S
$$

WIZ013-073-252300-
NORTHEAST WISCONSIN

CITY           SKY/WX    TMP DP  RH WIND       PRES   REMARKS
IRON MOUNTAIN  HVY RAIN  55  49  80 VRB3      29.99R
MARINETTE      LGT RAIN  60  54  80 E8        30.00R
$$

WIZ017-030-035>037-045-252300-
CENTRAL WISCONSIN

CITY           SKY/WX    TMP DP  RH WIND       PRES   REMARKS
MEDFORD        NOT AVBL
WAUSAU         CLOUDY    59  53  80 W12       30.04S
MOSINEE        NOT AVBL
MARSHFIELD     LGT RAIN  56  52  86 W10       30.07R FOG
WISC RAPIDS    LGT RAIN  55  52  89 NW6       30.09R
STEVENS POINT  NOT AVBL
WAUPACA        LGT RAIN  61  56  83 W3        30.03S
SHAWANO        NOT AVBL
CLINTONVILLE   CLOUDY    63  48  59 W14G20    30.02S
WAUTOMA        NOT AVBL
$$

WIZ038-039-048-051-252300-
FOX VALLEY

CITY           SKY/WX    TMP DP  RH WIND       PRES   REMARKS
NWS GREEN BAY  PTSUNNY   67  53  61 W21G29    30.00R
APPLETON       PTSUNNY   63  48  59 W14       30.01S
OSHKOSH        PTSUNNY   64  51  62 NW14G22   30.03S
FOND DU LAC    PTSUNNY   67  49  52 W15       30.03F
$$

WIZ022-050-052-252300-
EAST CENTRAL WISCONSIN

CITY           SKY/WX    TMP DP  RH WIND       PRES   REMARKS
EPHRAIM        NOT AVBL
WASHINGTON ISL NOT AVBL
STURGEON BAY     N/A     62  52  69 S7          N/A
MANITOWOC      NOT AVBL
SHEBOYGAN      MOSUNNY   68  51  54 W18       30.01F
$$

LMZ563-521-522-541>543-252300-
LAKESHORE

STATION/POSITION TIME  TEMP    WIND        PRES    VSBY  WAVE
                       AIR SEA DIR/SP/G                  HT/PER
                 (UTC) (F)     (DEG/KT/KT) (MB)    (MI)  (FT/S)
SHEBOYGAN LKSHOR 2100   67     290/ 18/ 21 1016.0F
KEWAUNEE LKSHORE 2118   59      50/  6/  9 1015.2
NORTHPORT PIER   2140   63     130/  4/  7 1014.9F
N MID LAKE BUOY  2050   58 58  200/  8/ 10 1015.8F         1/ 5
S GREEN BAY BUOY 2130   63     200/ 10/ 12 1015.0F
CHAMBERS ISLAND  2140   58     230/  3/  5 1015.2S
MENOMINEE LKSHOR 2118          130/  2/  6 1014.7
$$



USA.gov is the U.S. government's official web portal to all federal, state and local government web resources and services.